User: anonymous   Login
Location: Peebles
(55.6412°N, 3.1714°W)
Time: 09:28:22
(UTC+01:00)
Language:

COSMOS 1275 DEB - Orbit

View from above orbital plane
View from above orbital plane
View from above satellite
View from above satellite

Ground track
Ground track

The orbit data is extracted from the following two-line orbital elements,

1 39959U 81053NV  22172.49534626  .00000069  00000-0  56024-4 0  9991
2 39959  82.9604 255.0928 0037891 255.7321 103.9626 13.75142949403616
Epoch (UTC): 21 June 2022 11:53:17
Eccentricity: 0.0037891
inclination: 82.9604°
perigee height: 953 km
apogee height: 1009 km
right ascension of ascending node: 255.0928°
argument of perigee: 255.7321°
revolutions per day: 13.75142949
mean anomaly at epoch: 103.9626°
orbit number at epoch: 40361

The dashed part of the orbit path shows where the satellite is in the earth's shadow,  

DLR